Temperature
17 17 17 17 17 17 17 17 17 18 18 18 18 18 18 18 18 18 18 18 18 18 18 18 18 18 18 18 18 18 18 18 18 18 18 18 18 18 18 18 18 18 18
18 18 17 17 17 17 17 17 17 17 18 18 18 18 18 18 18 18 18 18 18 18 18 18 18 18 18 18 18 18 18 18 18 17 17 17 18 18 18 18 18 17 18
18 18 17 17 17 17 17 17 17 17 17 17 17 17 18 18 18 18 17 17 17 17 17 17 17 17 17 17 17 17 17 17 17 17 17 17 17 17 17 17 17 17 17
18 17 17 17 17 17 17 17 17 17 17 17 17 17 17 17 17 17 17 17 17 17 17 17 17 17 17 17 17 17 17 17 17 17 17 17 17 17 17 17 17 17 17
18 18 17 17 17 17 17 17 17 17 17 17 17 17 17 17 17 17 17 17 17 17 17 17 17 17 17 17 17 17 17 17 17 17 17 17 17 17 17 17 17 17 17
18 17 17 17 17 17 17 17 17 17 17 17 17 17 17 17 17 17 17 17 17 17 17 17 17 17 17 17 17 17 17 17 17 17 17 17 17 17 17 17 17 17 17
18 18 17 17 17 17 17 17 17 17 17 17 17 17 17 17 17 17 17 17 17 17 17 17 17 17 17 17 17 17 17 17 17 17 17 17 17 17 17 17 17 17 16
18 18 17 17 17 17 17 17 17 17 17 17 17 17 17 17 17 17 17 17 17 16 17 17 17 16 16 17 17 16 17 17 17 17 17 17 16 17 17 17 16 16 16
18 17 17 17 17 17 17 17 17 17 17 17 17 17 17 17 17 17 17 17 16 16 16 16 16 16 16 16 16 16 16 16 16 16 16 16 16 16 16 16 16 16 16
17 17 17 17 17 17 17 17 17 17 17 17 17 16 16 16 16 16 16 16 16 16 16 16 16 16 16 16 16 16 16 16 16 16 16 16 16 16 16 16 16 16 16
17 17 17 17 17 17 17 17 17 16 16 16 16 16 16 16 16 16 16 16 16 16 16 16 16 16 16 16 16 16 16 16 16 16 16 16 16 16 16 16 16 16 16
17 17 17 17 17 17 17 17 16 16 16 16 16 16 16 16 16 16 16 16 16 16 16 16 16 16 16 16 16 16 15 15 15 15 15 15 15 16 16 16 16 16 16
17 17 17 17 17 17 17 17 16 16 16 16 16 16 16 16 16 16 16 16 16 16 16 16 16 16 16 15 15 15 15 15 15 15 15 15 15 15 15 15 15 15 15
17 17 17 17 17 17 17 17 16 16 16 16 16 16 16 16 16 16 16 16 16 16 16 15 16 16 15 15 15 15 15 15 15 15 15 15 15 15 15 15 15 15 15
17 17 17 17 17 17 17 17 16 16 16 16 16 16 16 16 16 16 16 15 15 15 15 15 15 15 15 15 15 15 15 15 15 15 15 15 15 15 15 15 15 14 15
17 17 17 17 17 17 17 17 16 16 16 16 16 16 16 16 16 16 16 15 15 15 15 15 15 15 15 15 15 15 15 15 15 15 15 15 15 15 15 14 14 14 14
18 17 17 17 17 17 17 17 16 16 16 16 16 16 16 16 16 15 15 15 15 15 15 15 15 15 15 15 14 14 14 14 14 14 14 14 14 14 14 14 14 14 14
18 17 17 17 17 17 17 16 16 16 16 16 16 16 16 16 15 15 15 15 15 15 15 15 15 15 14 14 14 14 14 14 14 14 14 14 14 14 14 14 14 14 14
18 17 17 17 17 17 17 16 16 16 16 16 16 15 15 15 15 15 15 15 15 15 15 15 14 14 14 14 14 14 14 14 14 14 14 14 14 14 14 14 14 14 14
17 17 17 17 17 17 17 16 16 16 16 16 15 15 15 15 15 15 15 15 15 15 15 14 14 14 14 14 14 14 14 13 13 13 13 13 13 13 13 13 13 13 13
17 17 17 17 17 17 16 16 16 16 16 16 15 15 15 15 15 15 15 15 14 14 14 14 14 14 14 14 14 14 13 13 13 13 13 13 13 13 13 13 13 13 13
17 17 17 17 17 17 16 16 16 16 16 15 15 15 15 15 15 14 14 14 14 14 14 14 14 14 14 14 13 13 13 13 13 13 13 13 13 13 13 13 13 13 13
17 17 17 17 17 17 16 16 16 16 15 15 15 15 15 15 15 14 14 14 14 14 14 14 14 14 13 13 13 13 13 13 13 13 13 13 13 13 13 12 13 12 12
17 17 17 17 17 16 16 16 16 16 15 15 15 15 15 15 14 14 14 14 14 14 14 14 13 13 13 13 13 13 13 13 12 12 13 12 12 12 12 12 12 12 12
17 17 17 17 17 16 16 16 16 15 15 15 15 15 15 14 14 14 14 14 14 14 13 13 13 13 13 13 13 13 13 13 12 12 12 12 12 12 12 12 12 12 12
16 16 16 16 16 16 16 16 16 15 15 15 15 15 14 14 14 14 14 14 13 13 13 13 13 13 13 13 13 13 12 12 12 12 12 12 12 12 12 12 12 12 12
Wind_Speed
3 4 3 5 6 7 8 9 10 11 11 11 11 11 11 11 11 11 11 11 11 11 11 11 10 10 10 10 9 9 9 9 9 8 7 7 7 6 6 6 6 4 6
2 2 2 5 6 7 8 9 10 11 11 11 11 11 11 11 11 11 11 12 12 11 11 10 10 9 10 10 9 9 9 10 9 8 7 6 6 6 6 6 5 4 6
1 2 3 4 6 8 8 9 10 11 11 10 10 11 11 11 11 11 11 11 12 12 11 10 10 9 10 10 10 9 9 9 9 9 8 6 5 6 6 6 5 6 6
1 2 3 5 7 8 8 9 10 10 10 10 10 10 11 11 11 11 11 11 11 11 11 11 10 10 10 11 11 11 10 10 10 9 7 6 5 6 6 6 6 7 6
3 3 4 6 7 8 9 9 9 9 9 9 9 10 10 11 11 11 11 11 11 11 10 11 11 10 10 10 11 11 11 11 11 9 8 7 6 6 6 7 7 7 7
3 4 4 6 7 8 9 9 9 9 10 9 9 10 10 10 11 11 11 11 11 11 11 11 10 10 10 10 11 11 11 11 11 9 7 6 6 7 7 7 8 8 8
3 3 4 6 7 8 9 9 9 9 9 10 10 10 10 10 10 11 11 11 11 11 11 11 11 10 10 10 10 10 10 11 10 8 6 5 6 8 8 9 9 9 10
3 4 5 5 7 7 8 9 9 8 8 9 9 9 9 10 10 11 11 11 11 11 11 11 12 12 12 12 12 12 12 12 10 8 7 6 7 10 10 10 10 10 10
4 4 5 5 6 7 8 8 9 9 8 8 9 9 9 9 10 10 10 10 10 10 11 11 12 13 13 13 14 14 14 14 11 8 8 7 9 11 12 11 11 11 11
4 4 4 5 6 6 7 8 9 9 9 9 9 9 9 9 9 10 10 10 10 10 11 12 12 13 13 13 14 14 14 13 11 10 8 9 12 13 13 12 12 11 12
3 3 3 4 4 5 6 7 8 8 9 9 9 10 9 8 8 8 9 10 11 11 11 11 12 13 13 13 14 13 12 10 9 8 8 11 13 13 13 13 13 12 12
1 1 2 2 3 4 4 5 6 6 7 7 7 8 7 7 7 7 8 9 10 10 10 11 12 12 11 10 11 11 9 10 9 7 8 11 12 13 13 13 14 13 12
1 1 1 1 2 3 3 4 4 5 5 6 7 7 6 6 6 6 6 7 8 9 8 9 10 9 9 8 8 8 9 9 8 8 9 12 11 12 12 12 13 13 13
2 1 0 1 2 2 3 3 3 3 4 4 5 5 5 3 4 4 4 5 6 6 6 6 6 7 8 9 8 8 9 8 8 8 10 12 11 11 11 11 12 12 12
1 1 1 1 2 2 2 2 3 3 3 3 4 5 5 3 2 2 3 4 4 5 4 4 4 5 6 6 7 7 7 8 9 9 9 12 12 11 11 11 11 12 12
1 1 1 1 1 2 2 2 2 2 3 3 3 4 4 4 3 2 3 3 4 4 4 4 4 4 4 4 5 6 7 7 8 9 9 10 12 12 12 11 11 10 11
1 1 1 2 2 2 2 2 2 3 3 3 3 4 4 4 3 3 3 3 3 4 4 4 4 4 4 4 5 5 6 6 7 8 9 9 9 11 12 11 11 10 10
1 1 1 1 2 2 2 2 3 3 3 3 3 4 4 4 4 4 3 3 3 4 4 3 3 3 3 3 3 4 4 4 6 7 8 8 8 8 10 11 10 10 10
2 2 2 1 1 1 2 2 3 3 3 3 4 4 4 4 4 4 3 3 4 4 3 3 3 2 2 3 3 3 4 4 4 6 7 7 8 8 8 8 10 10 9
1 2 2 2 1 2 2 2 2 3 3 4 4 4 5 4 4 4 3 4 4 3 3 3 3 3 2 2 3 4 4 4 4 5 5 6 7 7 8 8 8 8 10
2 2 1 1 1 2 1 1 1 1 1 2 3 4 4 4 4 4 3 3 3 3 3 3 3 3 3 2 3 3 4 4 4 4 4 4 5 6 7 7 6 7 7
2 1 1 1 1 1 1 1 1 1 1 1 2 4 4 3 3 3 3 2 2 3 4 4 3 2 2 2 2 2 2 4 3 3 3 4 4 5 5 5 5 6 6
1 1 1 1 1 1 2 2 3 3 2 2 2 1 3 3 3 3 3 2 2 2 2 2 2 3 1 1 2 2 2 1 2 3 2 3 4 3 3 3 4 5 5
1 1 1 1 2 1 2 3 3 2 1 1 1 0 1 2 2 2 2 2 2 2 2 1 2 1 2 1 1 1 1 2 1 2 3 2 3 3 3 3 3 3 4
0 1 1 2 2 2 2 3 3 2 1 0 0 1 1 1 2 1 2 2 2 1 1 1 2 2 2 1 1 1 1 2 1 2 2 3 3 3 2 2 2 2 3
1 1 1 2 1 1 2 2 3 3 2 1 0 0 0 1 1 1 1 1 1 1 1 1 1 1 1 1 1 1 1 1 1 1 1 2 3 3 3 2 2 2 3
Wind_Direction
296 302 351 39 45 52 56 57 60 64 67 70 72 72 70 70 73 73 71 71 72 72 71 68 66 69 67 66 68 71 73 73 75 79 85 87 86 83 81 86 92 97 103
274 321 28 56 55 56 57 59 61 65 67 69 72 72 71 70 71 71 70 69 68 68 67 66 66 66 66 66 67 71 73 73 72 72 72 72 79 82 82 88 96 95 106
1 2 41 61 63 62 62 64 64 67 68 68 70 71 70 70 70 72 71 70 67 66 64 63 66 65 67 65 64 69 73 73 70 66 59 55 68 82 83 84 92 96 101
71 33 51 62 67 68 67 69 69 70 70 68 71 73 72 71 69 70 71 70 68 66 62 61 62 66 67 65 63 66 67 65 66 61 50 47 56 79 86 92 93 94 94
66 43 48 64 66 67 70 73 73 71 73 72 75 76 76 74 71 69 69 68 66 64 61 60 59 63 65 66 67 65 62 60 59 52 46 43 47 71 88 95 95 98 98
63 47 52 65 66 65 69 72 73 70 70 71 76 76 74 72 70 71 69 67 65 64 62 61 61 64 65 67 67 65 62 60 54 50 47 47 50 66 80 94 95 96 94
61 45 60 70 68 66 67 69 70 69 69 71 75 77 75 71 67 68 66 65 64 63 61 60 60 63 66 64 63 63 63 59 54 47 40 48 61 73 83 92 92 92 89
68 46 51 65 69 67 66 64 64 65 67 70 72 74 73 70 66 64 62 62 62 62 62 61 61 63 65 63 62 61 59 55 50 39 36 52 70 76 82 88 89 88 87
63 52 46 50 57 60 62 58 58 59 62 68 71 72 70 68 65 64 57 58 61 63 65 65 65 66 67 65 62 61 57 52 46 39 42 53 72 75 76 82 83 84 84
52 43 43 47 50 51 52 53 54 55 59 66 66 67 66 60 56 56 55 54 57 62 65 66 66 66 64 63 60 59 55 49 43 39 41 58 66 71 72 77 81 80 79
49 29 38 46 46 51 56 52 51 51 54 58 57 59 58 48 45 46 50 54 57 59 61 64 66 68 64 62 60 59 54 47 44 41 46 60 66 70 74 75 78 77 76
56 17 34 48 52 61 62 56 51 49 50 53 53 54 54 52 47 47 46 52 55 58 60 62 66 64 60 57 55 54 50 46 44 39 49 60 66 69 72 73 74 74 74
156 89 49 51 60 70 61 59 53 46 45 43 45 48 54 53 46 44 41 39 44 50 51 56 60 58 58 56 53 51 48 49 43 39 49 57 65 69 70 71 71 71 71
128 143 106 84 67 67 70 64 57 46 38 35 40 48 55 51 44 43 45 36 40 45 49 56 62 59 58 57 56 52 48 49 43 40 43 50 62 70 72 72 71 70 70
161 185 194 101 95 84 75 62 63 45 36 32 41 51 63 62 50 47 43 42 38 45 53 60 64 58 54 52 55 56 50 46 42 41 37 47 57 66 71 74 72 70 70
188 196 189 123 117 107 98 80 63 54 48 47 44 50 63 71 63 58 50 42 37 42 58 74 76 68 56 57 50 49 49 47 44 42 40 43 50 56 62 68 70 68 67
182 178 180 154 106 105 104 95 75 62 66 51 39 51 62 68 69 68 62 41 32 51 68 72 65 67 60 55 45 43 46 46 44 43 42 41 43 48 53 60 65 65 64
144 139 132 135 121 116 103 88 68 64 64 50 45 50 52 56 66 70 61 39 33 53 66 71 59 61 53 50 43 35 37 42 41 43 45 44 44 43 45 49 55 57 59
156 143 127 97 115 135 112 85 70 61 55 44 49 48 47 55 63 71 58 41 48 59 57 71 61 73 67 46 47 40 31 31 30 43 43 41 43 45 43 42 48 49 50
121 123 124 102 96 79 83 74 62 51 42 43 46 43 50 52 57 65 59 41 53 58 47 57 69 57 68 53 58 43 28 25 31 35 35 38 40 43 44 42 41 39 39
79 88 116 111 85 93 84 98 94 55 23 27 34 42 49 54 57 67 60 52 51 63 60 63 71 66 47 44 60 34 17 23 32 26 26 32 30 31 38 38 36 35 29
132 129 123 148 135 146 150 142 130 120 81 65 26 33 41 59 69 73 73 73 60 65 59 57 67 71 51 51 81 77 18 356 1 14 19 27 16 18 25 26 29 30 27
137 179 170 166 149 147 128 91 68 61 43 29 18 12 17 49 65 67 73 80 71 80 89 70 77 82 91 23 60 110 120 245 313 334 0 13 2 5 2 7 18 20 19
216 200 155 128 122 124 123 124 122 129 140 238 249 280 8 40 53 66 82 90 89 81 96 96 88 87 110 88 14 46 118 153 145 315 329 347 349 350 343 351 355 357 358
169 130 139 114 102 107 131 148 144 143 177 191 66 63 19 14 33 54 89 95 94 92 101 95 84 78 101 117 98 71 63 56 95 154 285 317 332 319 319 318 325 335 336
45 64 100 101 90 102 127 141 155 161 157 125 46 48 330 321 334 5 101 110 120 110 120 136 127 114 107 101 88 91 125 141 197 156 213 282 301 303 308 301 299 303 310
Height
1522 1521 1520 1519 1518 1517 1516 1515 1515 1514 1514 1513 1513 1512 1512 1511 1511 1511 1510 1510 1509 1509 1509 1509 1508 1508 1508 1507 1507 1507 1506 1506 1506 1506 1507 1507 1507 1507 1507 1508 1508 1508 1509
1523 1522 1521 1520 1519 1518 1517 1517 1516 1515 1515 1514 1514 1514 1513 1513 1512 1512 1512 1511 1511 1511 1511 1510 1510 1509 1509 1508 1508 1507 1507 1507 1507 1507 1507 1507 1507 1507 1507 1507 1508 1509 1509
1524 1523 1522 1521 1520 1520 1519 1518 1517 1516 1516 1515 1515 1515 1514 1514 1514 1513 1513 1513 1513 1512 1512 1511 1511 1510 1510 1509 1508 1507 1508 1508 1507 1507 1507 1506 1506 1505 1506 1507 1507 1508 1509
1525 1524 1524 1523 1522 1521 1520 1519 1518 1518 1517 1516 1516 1516 1516 1515 1515 1515 1515 1514 1514 1514 1513 1513 1512 1512 1511 1510 1509 1509 1509 1508 1508 1507 1506 1505 1505 1504 1504 1505 1506 1508 1509
1526 1526 1525 1524 1523 1523 1522 1521 1520 1519 1518 1518 1517 1517 1517 1517 1517 1516 1516 1516 1515 1515 1515 1514 1514 1513 1512 1511 1511 1510 1509 1509 1508 1507 1506 1504 1503 1502 1502 1503 1505 1507 1509
1528 1527 1527 1526 1525 1524 1523 1523 1522 1521 1520 1519 1519 1519 1519 1519 1518 1518 1518 1517 1517 1516 1516 1515 1515 1514 1513 1512 1511 1511 1510 1509 1508 1506 1504 1503 1501 1499 1499 1501 1504 1507 1509
1529 1529 1528 1528 1527 1526 1525 1524 1524 1523 1522 1521 1521 1520 1520 1520 1520 1520 1519 1518 1518 1518 1517 1516 1516 1515 1514 1513 1512 1511 1510 1509 1508 1506 1503 1501 1500 1499 1499 1502 1505 1507 1509
1531 1530 1530 1529 1528 1528 1527 1526 1525 1524 1523 1523 1523 1522 1522 1522 1521 1521 1521 1520 1520 1519 1518 1518 1517 1516 1515 1514 1513 1512 1511 1510 1508 1504 1501 1499 1501 1502 1502 1504 1506 1509 1510
1532 1532 1531 1531 1530 1529 1529 1528 1527 1526 1524 1524 1524 1524 1524 1524 1523 1523 1522 1522 1521 1520 1520 1519 1518 1517 1517 1515 1515 1514 1513 1511 1509 1506 1503 1502 1504 1505 1506 1507 1509 1510 1511
1533 1533 1533 1532 1532 1531 1530 1530 1529 1527 1526 1525 1525 1525 1525 1525 1525 1524 1524 1523 1522 1522 1521 1520 1520 1519 1518 1517 1516 1515 1514 1513 1512 1510 1508 1508 1508 1509 1509 1510 1511 1512 1512
1535 1535 1534 1534 1533 1533 1532 1531 1530 1530 1529 1528 1527 1527 1527 1526 1526 1526 1525 1525 1524 1523 1523 1522 1521 1521 1520 1519 1518 1517 1516 1515 1515 1513 1513 1512 1512 1512 1512 1512 1513 1513 1514
1536 1536 1536 1535 1535 1534 1534 1533 1532 1531 1531 1530 1529 1528 1528 1528 1528 1527 1527 1527 1526 1525 1524 1524 1523 1522 1521 1521 1520 1519 1518 1517 1517 1516 1516 1516 1515 1515 1514 1515 1515 1515 1516
1537 1537 1537 1537 1536 1536 1535 1534 1534 1533 1532 1532 1531 1530 1530 1529 1529 1529 1528 1528 1528 1527 1526 1526 1525 1524 1523 1523 1522 1521 1520 1519 1519 1519 1518 1518 1517 1517 1516 1516 1517 1517 1517
1538 1538 1538 1538 1537 1537 1536 1536 1535 1535 1534 1533 1532 1532 1531 1530 1530 1530 1530 1529 1529 1528 1528 1527 1526 1526 1525 1524 1524 1523 1522 1522 1521 1521 1520 1520 1519 1519 1518 1518 1518 1519 1519
1539 1539 1539 1539 1539 1538 1538 1537 1536 1536 1535 1534 1534 1533 1532 1532 1531 1531 1531 1530 1530 1530 1529 1529 1528 1527 1527 1526 1525 1525 1524 1524 1523 1522 1522 1521 1520 1520 1520 1520 1520 1520 1520
1539 1540 1540 1540 1540 1539 1539 1538 1537 1537 1536 1535 1534 1534 1533 1532 1532 1532 1531 1531 1531 1531 1530 1530 1529 1529 1528 1528 1527 1526 1526 1525 1525 1524 1523 1522 1522 1521 1521 1521 1521 1521 1521
1540 1540 1541 1541 1540 1540 1540 1539 1538 1538 1537 1536 1535 1535 1534 1533 1533 1533 1532 1532 1532 1532 1532 1531 1531 1530 1529 1529 1528 1528 1527 1527 1526 1525 1525 1524 1523 1523 1522 1522 1523 1523 1523
1540 1540 1541 1541 1541 1541 1541 1540 1539 1538 1538 1537 1536 1535 1535 1534 1534 1534 1533 1533 1533 1533 1532 1532 1531 1531 1530 1530 1529 1529 1528 1528 1527 1527 1526 1525 1525 1524 1524 1524 1524 1524 1524
1540 1540 1541 1541 1541 1541 1541 1541 1540 1539 1538 1538 1537 1536 1536 1535 1535 1534 1534 1534 1534 1533 1533 1532 1532 1531 1531 1530 1530 1529 1529 1529 1528 1528 1528 1527 1526 1526 1525 1525 1525 1525 1524
1540 1540 1541 1541 1541 1541 1541 1541 1541 1540 1538 1538 1538 1537 1537 1536 1536 1535 1535 1534 1534 1534 1533 1533 1532 1532 1532 1531 1531 1530 1530 1530 1529 1529 1529 1528 1528 1527 1526 1526 1525 1525 1525
1539 1540 1540 1540 1541 1541 1541 1541 1540 1540 1539 1539 1538 1538 1537 1537 1536 1536 1535 1535 1534 1534 1533 1533 1533 1532 1532 1531 1531 1530 1531 1530 1530 1529 1529 1529 1528 1527 1527 1526 1526 1525 1525
1538 1539 1539 1540 1540 1540 1540 1540 1540 1540 1539 1539 1538 1538 1538 1537 1537 1536 1536 1535 1535 1534 1534 1533 1533 1532 1532 1531 1531 1530 1531 1532 1530 1530 1530 1529 1529 1528 1527 1527 1526 1526 1525
1537 1538 1538 1539 1539 1540 1540 1540 1540 1540 1539 1539 1538 1538 1537 1537 1537 1536 1536 1535 1535 1534 1534 1533 1532 1532 1532 1532 1532 1532 1531 1531 1531 1531 1530 1529 1529 1528 1528 1527 1526 1526 1525
1536 1537 1538 1538 1538 1539 1539 1539 1539 1538 1538 1538 1537 1537 1537 1537 1536 1536 1535 1535 1535 1534 1533 1533 1532 1532 1531 1531 1531 1531 1531 1531 1530 1530 1530 1529 1529 1528 1528 1527 1526 1526 1525
1536 1536 1537 1537 1537 1538 1538 1538 1538 1537 1537 1537 1537 1536 1536 1535 1535 1535 1535 1534 1534 1533 1533 1532 1532 1531 1531 1530 1530 1530 1530 1530 1529 1529 1528 1528 1528 1528 1528 1527 1526 1525 1525
1535 1535 1536 1536 1536 1536 1536 1536 1536 1536 1536 1536 1536 1535 1534 1534 1534 1534 1533 1533 1533 1532 1532 1531 1531 1531 1530 1530 1529 1529 1528 1528 1528 1527 1527 1526 1526 1527 1526 1526 1526 1525 1524